User: anonymous
Location: Caltech
(34.1382°N, 118.1253°W)
Time: 03:20:58
(UTC-07:00)
Language:

Tiros 1 despin weight - Orbit

View from above orbital plane
View from above orbital plane
View from above satellite
View from above satellite

Ground track
Ground track

The orbit data is extracted from the following two-line orbital elements,

1 00115U 60002D   14265.38208581  .00001643  00000-0  23670-3 0  4718
2 00115 048.1656 257.9629 0036240 023.4538 086.3180 14.80787578902045
Epoch (UTC): 22 September 2014 09:10:12
Eccentricity: 0.0036240
inclination: 48.1656°
perigee height: 601 km
apogee height: 652 km
right ascension of ascending node: 257.9629°
argument of perigee: 23.4538°
revolutions per day: 14.80787578
mean anomaly at epoch: 86.3180°
orbit number at epoch: 90204

The dashed part of the orbit path shows where the satellite is in the earth's shadow,  

DLR